Total_Precipitation_Accumulation
2.35 2.38 2.29 2.27 2.20 2.13 1.99 1.81 1.78 1.72 1.60 1.49 1.41 1.37 1.35 1.37 1.36 1.41 1.39 1.35 1.32 1.29 1.24 1.22 1.25 1.32 1.43 1.43 1.46 1.60 1.81 2.02 2.08 1.70 1.56 1.65 1.79 1.74 1.77 1.69 1.59 1.60 1.58
2.03 2.12 2.16 2.07 1.89 1.79 1.71 1.63 1.54 1.47 1.41 1.34 1.23 1.19 1.15 1.12 1.11 1.12 1.15 1.16 1.16 1.12 1.13 1.18 1.19 1.23 1.30 1.38 1.44 1.50 1.66 1.92 2.08 1.98 1.75 1.77 1.82 1.79 1.85 1.81 1.62 1.53 1.57
1.79 1.82 1.78 1.72 1.66 1.57 1.54 1.52 1.40 1.33 1.25 1.18 1.13 1.11 1.06 1.05 1.00 0.97 0.99 1.06 1.06 1.02 1.06 1.12 1.18 1.33 1.33 1.37 1.44 1.47 1.59 1.73 2.04 2.10 1.89 1.89 1.95 1.95 2.07 1.91 1.73 1.72 1.47
1.48 1.55 1.56 1.52 1.49 1.44 1.34 1.31 1.28 1.26 1.20 1.15 1.13 1.05 1.00 0.96 0.96 0.94 0.94 0.98 1.00 1.00 1.05 1.12 1.17 1.30 1.38 1.45 1.46 1.54 1.62 1.76 1.95 2.09 2.03 2.02 2.08 2.12 2.14 2.06 1.94 1.79 1.62
1.39 1.36 1.43 1.50 1.47 1.41 1.38 1.34 1.27 1.20 1.11 1.10 1.10 1.05 1.00 0.92 0.88 0.90 0.91 0.93 1.01 1.03 1.01 1.02 1.07 1.17 1.28 1.28 1.21 1.31 1.50 1.75 1.82 2.00 2.06 2.09 2.09 2.15 2.05 1.84 1.79 1.75 1.60
1.40 1.37 1.39 1.44 1.43 1.38 1.36 1.31 1.24 1.17 1.15 1.11 1.07 1.03 0.97 0.79 0.84 0.87 0.87 0.94 1.00 1.00 1.00 0.98 0.94 0.93 0.91 0.93 0.98 1.06 1.23 1.53 1.88 2.10 2.06 2.04 1.93 1.87 1.89 1.84 1.86 1.86 1.81
1.55 1.44 1.42 1.38 1.33 1.30 1.18 1.14 1.18 1.19 1.15 1.08 1.02 1.02 0.98 0.88 0.83 0.77 0.81 0.91 1.00 1.06 1.11 1.08 0.85 0.74 0.85 0.90 0.95 1.00 1.13 1.31 1.64 2.03 2.12 1.92 1.87 1.83 1.90 1.91 1.97 2.00 1.85
1.52 1.40 1.32 1.31 1.26 1.24 1.21 1.19 1.20 1.19 1.12 1.13 1.09 1.07 1.06 0.92 0.82 0.74 0.77 0.84 0.96 0.99 1.01 1.05 1.06 0.97 0.90 0.99 1.06 1.14 1.26 1.37 1.47 1.59 1.93 1.78 1.60 1.65 1.77 1.84 1.97 2.00 1.88
1.51 1.32 1.21 1.21 1.16 1.12 1.15 1.18 1.16 1.14 1.09 1.06 1.04 1.05 1.11 1.04 0.88 0.77 0.72 0.78 0.89 0.91 0.87 0.87 0.87 0.91 1.00 1.17 1.28 1.49 1.61 1.70 1.57 1.72 1.90 1.86 1.72 1.69 1.62 1.75 2.05 2.11 1.97
1.28 1.15 1.12 1.14 1.08 1.05 1.07 1.08 1.06 1.06 1.06 1.03 1.00 1.03 1.04 0.97 0.81 0.68 0.64 0.70 0.84 0.89 0.93 0.89 0.82 0.77 0.91 1.09 1.34 1.66 1.81 1.88 1.73 1.83 2.10 2.13 1.96 1.97 1.97 1.92 2.13 2.22 2.11
1.09 1.02 1.06 1.06 1.00 0.96 1.00 1.02 1.03 0.97 1.00 1.02 0.96 0.96 0.90 0.77 0.69 0.59 0.57 0.61 0.74 0.87 0.92 0.96 0.94 0.86 0.90 1.13 1.35 1.56 1.72 1.77 1.83 1.94 1.96 1.97 2.05 2.09 2.10 2.09 2.11 2.12 2.08
1.01 0.97 1.02 1.06 0.85 0.75 0.87 0.89 0.92 1.00 0.98 0.98 0.99 0.91 0.78 0.72 0.60 0.55 0.55 0.54 0.58 0.76 0.94 0.97 1.00 0.97 1.00 1.19 1.34 1.59 1.80 1.89 1.89 1.98 1.85 1.74 1.70 1.73 1.81 1.84 1.87 1.85 1.80
0.96 1.00 0.99 0.97 0.88 0.81 0.85 0.86 0.89 0.94 0.92 0.88 0.89 0.85 0.73 0.70 0.63 0.58 0.58 0.60 0.63 0.69 0.85 0.94 0.96 0.98 1.10 1.37 1.53 1.71 1.90 2.02 2.08 1.97 1.76 1.64 1.52 1.48 1.49 1.60 1.69 1.71 1.63
0.98 0.99 1.00 0.96 0.87 0.82 0.85 0.80 0.81 0.81 0.80 0.76 0.77 0.78 0.75 0.71 0.63 0.59 0.63 0.68 0.73 0.76 0.85 1.00 1.08 1.11 1.26 1.55 1.75 1.94 2.02 1.97 1.84 1.79 1.70 1.61 1.48 1.43 1.46 1.43 1.48 1.54 1.58
1.01 0.97 0.95 0.85 0.82 0.83 0.77 0.66 0.62 0.59 0.60 0.65 0.69 0.67 0.65 0.63 0.59 0.62 0.63 0.64 0.68 0.71 0.79 0.99 1.17 1.27 1.43 1.63 1.82 1.89 1.87 1.78 1.69 1.53 1.48 1.55 1.53 1.44 1.44 1.38 1.37 1.39 1.48
0.98 0.93 0.85 0.78 0.74 0.71 0.73 0.64 0.56 0.52 0.51 0.49 0.52 0.51 0.51 0.58 0.60 0.60 0.58 0.61 0.65 0.71 0.78 1.00 1.17 1.26 1.42 1.61 1.77 1.77 1.68 1.58 1.49 1.38 1.33 1.30 1.30 1.27 1.29 1.28 1.21 1.21 1.28
0.85 0.82 0.77 0.72 0.69 0.65 0.68 0.71 0.68 0.52 0.44 0.42 0.44 0.46 0.49 0.51 0.48 0.47 0.50 0.56 0.59 0.64 0.73 0.96 1.12 1.25 1.44 1.55 1.57 1.56 1.53 1.43 1.34 1.29 1.26 1.19 1.12 1.09 1.07 1.06 1.05 1.09 1.07
0.70 0.66 0.64 0.67 0.67 0.64 0.59 0.58 0.59 0.60 0.57 0.50 0.44 0.42 0.40 0.40 0.38 0.39 0.44 0.48 0.54 0.58 0.72 0.94 1.09 1.21 1.32 1.41 1.45 1.47 1.44 1.34 1.25 1.23 1.28 1.25 1.14 1.06 0.98 0.98 0.98 0.97 0.97
0.61 0.62 0.55 0.54 0.57 0.55 0.52 0.52 0.51 0.54 0.55 0.54 0.48 0.41 0.39 0.38 0.38 0.42 0.45 0.47 0.56 0.66 0.76 0.90 1.02 1.15 1.17 1.16 1.20 1.25 1.27 1.26 1.20 1.16 1.15 1.16 1.11 1.02 0.92 0.85 0.82 0.75 0.79
0.51 0.51 0.48 0.46 0.47 0.49 0.46 0.48 0.48 0.47 0.48 0.48 0.46 0.42 0.42 0.48 0.49 0.51 0.50 0.48 0.55 0.65 0.75 0.86 0.94 0.99 0.97 0.96 0.95 0.97 1.00 1.06 1.05 1.00 0.98 0.99 0.98 0.91 0.86 0.81 0.78 0.76 0.75
0.41 0.42 0.44 0.40 0.39 0.38 0.37 0.37 0.40 0.43 0.44 0.47 0.44 0.42 0.51 0.54 0.58 0.59 0.59 0.58 0.60 0.64 0.69 0.72 0.76 0.79 0.78 0.79 0.80 0.83 0.86 0.90 0.92 0.91 0.87 0.85 0.83 0.82 0.77 0.74 0.72 0.69 0.67
0.37 0.38 0.39 0.38 0.36 0.33 0.31 0.33 0.35 0.37 0.37 0.40 0.44 0.47 0.57 0.55 0.60 0.65 0.67 0.66 0.66 0.64 0.62 0.62 0.61 0.62 0.63 0.67 0.68 0.68 0.71 0.73 0.80 0.85 0.86 0.81 0.73 0.70 0.66 0.64 0.66 0.69 0.68
0.40 0.40 0.40 0.41 0.38 0.35 0.32 0.35 0.36 0.36 0.36 0.37 0.39 0.44 0.53 0.61 0.70 0.76 0.76 0.72 0.68 0.64 0.60 0.59 0.59 0.59 0.60 0.59 0.58 0.63 0.67 0.69 0.74 0.82 0.87 0.80 0.71 0.67 0.62 0.59 0.61 0.66 0.65
0.41 0.40 0.41 0.42 0.42 0.41 0.39 0.38 0.37 0.37 0.38 0.41 0.43 0.46 0.51 0.60 0.66 0.74 0.80 0.79 0.74 0.69 0.64 0.60 0.59 0.58 0.58 0.56 0.51 0.48 0.49 0.56 0.65 0.72 0.75 0.75 0.65 0.58 0.55 0.53 0.54 0.55 0.59
0.46 0.44 0.42 0.40 0.40 0.41 0.39 0.40 0.38 0.37 0.37 0.39 0.41 0.43 0.47 0.51 0.55 0.64 0.74 0.78 0.80 0.80 0.74 0.67 0.65 0.61 0.54 0.48 0.42 0.37 0.43 0.50 0.57 0.61 0.65 0.63 0.55 0.51 0.51 0.53 0.52 0.49 0.52
0.43 0.44 0.43 0.39 0.37 0.39 0.40 0.40 0.40 0.39 0.39 0.38 0.37 0.38 0.40 0.42 0.46 0.52 0.61 0.67 0.72 0.78 0.83 0.84 0.79 0.64 0.52 0.44 0.42 0.43 0.44 0.43 0.45 0.50 0.54 0.54 0.47 0.46 0.49 0.51 0.46 0.47 0.49